[[{"header":{"parameterUnit":"m.s-1","parameterCategory":1,"la1":30.2992,"la2":30.254,"lo1":-89.0895,"lo2":-89.0443,"dy":0.0025,"dx":0.0025,"nx":19,"ny":19,"refTime":"2026-04-11T03:00:00:Z","depth":0,"parameterNumber":2,"parameterNumberName":"U-component_of_WINDS"},"data":[0,0,0,-0.9758,-0.9758,-0.9773,-0.9773,-0.9801,-0.9802,0,0,0,0,0,0,0,0,0,0,0,-0.9758,-0.9758,-0.9758,-0.9758,-0.9773,-0.9773,-0.9801,-0.9802,0,0,0,0,0,0,0,0,0,0,0,-0.9757,-0.9758,-0.9758,-0.9758,-0.9773,-0.9773,-0.9801,-0.9787,0,0,0,0,0,0,0,0,0,0,-0.9771,-0.9775,-0.9758,-0.9758,-0.9758,-0.9773,-0.9773,-0.9786,-0.9788,-0.9798,0,-0.9808,0,-0.9805,-0.9804,-0.9804,0,0,0,-0.9755,-0.9773,-0.9773,-0.9758,-0.9758,-0.9773,-0.9765,-0.9787,-0.9789,-0.9801,-0.9808,-0.9809,-0.9806,-0.9804,-0.9804,-0.9873,-0.9874,0,0,-0.9754,-0.9763,-0.9772,-0.9775,-0.9772,-0.9765,-0.9766,-0.9788,-0.9797,-0.9808,-0.9809,-0.9806,-0.9804,-0.9805,-0.9873,-0.9873,0,0,0,-0.9754,-0.9762,-0.9762,-0.9774,-0.9776,-0.9765,-0.9766,-0.9796,-0.9795,-0.9809,-0.9806,-0.9805,-0.9805,-0.9872,-0.9873,-0.9904,0,0,0,-0.9753,-0.9762,-0.9761,-0.9767,-0.9776,-0.9786,-0.9774,-0.9793,-0.9796,-0.9806,-0.9805,-0.9805,-0.9872,-0.9872,-0.9902,-0.9917,0,0,0,-0.9755,-0.9762,-0.9766,-0.9767,-0.9774,-0.9785,-0.9785,-0.9794,-0.9794,-0.9804,-0.9806,-0.9871,-0.9872,-0.99,-0.9914,-0.9938,0,0,0,-0.976,-0.9793,-0.9767,-0.9803,-0.9774,-0.9804,-0.9785,-0.9807,-0.982,-0.9805,-0.9872,-0.9873,-0.99,-0.9912,-0.9936,-0.996,-0.997,0,0,-0.9807,-0.9799,-0.982,-0.9797,-0.9834,-0.9801,-0.9844,-0.9847,-0.9841,-0.9863,-0.9865,-0.9903,-0.9914,-0.9938,-1.0026,-1.0034,0,0,0,-0.9838,-0.9853,-0.9861,-0.9873,-0.9876,-0.9881,-0.9877,-0.9879,-0.9897,-0.9853,-0.9917,-0.9924,-0.9938,-0.9948,-0.9955,-0.9967,-0.9878,-0.9878,-0.9878,-0.9916,-0.9906,-0.994,-0.9932,-0.9945,-0.9941,-0.995,-0.9952,-0.9938,-0.9954,-0.996,-1.0015,-1.0028,-1.0033,-1.0045,-0.9972,-0.9972,-0.9972,-0.9972,-0.9985,-1.0005,-0.9986,-1.0012,-1.0002,-1.0025,-1.0023,-1.0013,-1.0033,-1.0009,-1.002,-0.9994,-1.0043,-1.0053,-0.9974,-0.9974,-0.9974,-0.9973,-0.9973,-1.0035,-1.0043,-1.0044,-1.0061,-1.0076,-1.0068,-1.0088,-1.0078,-1.0069,-1.008,-1.0087,-1.0086,-1.0085,-1.0084,-1.0084,-1.0085,-1.0085,-1.0085,-1.0085,-1.0086,-1.0087,-1.0105,-1.0112,-1.0119,-1.0128,-1.0126,-1.0133,-1.0139,-1.013,-1.013,-1.0115,-1.0049,-1.0033,-1.0088,-1.0087,-1.0087,-1.0087,-1.0087,-1.0159,-1.0141,-1.0169,-1.0176,-1.0185,-1.0201,-1.0188,-1.0204,-1.0209,-1.022,-1.0203,-1.0156,-1.0147,-1.0142,-1.0128,-1.0205,-1.0205,-1.0205,-1.0205,-1.0202,-1.0197,-1.0223,-1.0236,-1.0247,-1.0238,-1.0272,-1.0271,-1.0268,-1.0271,-1.0258,-1.024,-1.0234,-1.0229,-1.0222,-1.0209,-1.0304,-1.0304,-1.0304,-1.0246,-1.0242,-1.0271,-1.0267,-1.0274,-1.028,-1.0311,-1.0328,-1.032,-1.0308,-1.0273,-1.0269,-1.0238,-1.0229,-1.0215,-1.0203,-1.018,0,0]},{"header":{"parameterUnit":"m.s-1","parameterCategory":1,"la1":30.2992,"la2":30.254,"lo1":-89.0895,"lo2":-89.0443,"dy":0.0025,"dx":0.0025,"nx":19,"ny":19,"refTime":"2026-04-11T03:00:00:Z","depth":0,"parameterNumber":3,"parameterNumberName":"V-component_of_WINDS"},"data":[0,0,0,0.9496,0.9496,0.9452,0.9451,0.9401,0.9401,0,0,0,0,0,0,0,0,0,0,0,0.9514,0.9514,0.9496,0.9495,0.9452,0.9451,0.9401,0.9401,0,0,0,0,0,0,0,0,0,0,0,0.9514,0.9514,0.9514,0.9495,0.9452,0.9451,0.9401,0.9432,0,0,0,0,0,0,0,0,0,0,0.9473,0.9495,0.9514,0.9514,0.9495,0.9452,0.9451,0.9433,0.943,0.9424,0,0.9421,0,0.941,0.9398,0.9398,0,0,0,0.9491,0.9497,0.9482,0.9514,0.9495,0.9452,0.947,0.9431,0.9428,0.942,0.942,0.9418,0.9409,0.9397,0.9397,0.938,0.938,0,0,0.9494,0.9508,0.9484,0.948,0.9488,0.9472,0.9469,0.9429,0.943,0.942,0.9417,0.9408,0.9397,0.9397,0.938,0.938,0,0,0,0.9504,0.951,0.9495,0.9482,0.9474,0.947,0.9467,0.9431,0.9425,0.9416,0.9408,0.9397,0.9396,0.9379,0.938,0.9401,0,0,0,0.9505,0.9516,0.9496,0.9505,0.9474,0.9452,0.9471,0.9428,0.9423,0.9408,0.9397,0.9396,0.9379,0.938,0.94,0.9408,0,0,0,0.9515,0.9517,0.9512,0.9506,0.9487,0.9452,0.9444,0.9427,0.9419,0.9397,0.9396,0.9379,0.9379,0.9399,0.9406,0.9409,0,0,0,0.953,0.953,0.9513,0.9509,0.9488,0.9466,0.9444,0.9427,0.9411,0.9397,0.9379,0.938,0.9399,0.9406,0.9408,0.9414,0.9418,0,0,0.9537,0.9531,0.9528,0.9512,0.9497,0.9472,0.9459,0.943,0.9414,0.9392,0.9391,0.94,0.9406,0.9409,0.9432,0.9435,0,0,0,0.9535,0.9533,0.9526,0.9513,0.9492,0.9475,0.9447,0.9436,0.9417,0.9406,0.94,0.9404,0.9404,0.9407,0.9409,0.941,0.9381,0.9381,0.9381,0.9565,0.9547,0.9541,0.9517,0.9505,0.9477,0.9465,0.9446,0.9428,0.9428,0.9421,0.9438,0.9441,0.9443,0.9444,0.9422,0.9422,0.9422,0.9422,0.9575,0.957,0.955,0.9537,0.9517,0.9505,0.9478,0.9467,0.9453,0.9441,0.944,0.9429,0.9447,0.9447,0.9424,0.9423,0.9423,0.9423,0.9423,0.9594,0.9588,0.9577,0.9558,0.9545,0.952,0.9509,0.949,0.9472,0.9472,0.9464,0.9464,0.9462,0.947,0.947,0.947,0.947,0.947,0.947,0.9618,0.9605,0.9598,0.9578,0.9568,0.9553,0.9526,0.9516,0.9499,0.9487,0.9486,0.947,0.9452,0.9449,0.9471,0.9471,0.9471,0.947,0.947,0.9636,0.963,0.962,0.9611,0.9586,0.9576,0.9553,0.9533,0.9522,0.9517,0.9501,0.9491,0.9482,0.948,0.9477,0.9505,0.9505,0.9505,0.9505,0.9653,0.9648,0.9634,0.9621,0.9605,0.9585,0.9574,0.9554,0.9531,0.9523,0.9516,0.951,0.9509,0.9501,0.9498,0.9495,0.9527,0.9527,0.9527,0.9664,0.9657,0.9651,0.9631,0.9611,0.9595,0.9585,0.9569,0.9542,0.9528,0.9516,0.9515,0.9506,0.9503,0.9489,0.9485,0.9479,0,0]}]]